Date String (YYYY-MM-DD hh:mm:ss) UTC,Instrument flags,absolute air pressure of the measurement (hPa),sample flow rate (lpm),inlet stack bypass flow (lpm),air temperature of the measurement (°C),ambient temperature measured by the external sensor (°C),aerosol sample conditioner tube jacket temperature (°C),OPC LED temperature (°C),internal box temperature (°C),relative humidity of the measurement (%),span deviation,mass concentration of particles derived from Lorenz-Mie calculation of OPC scattering (μg/m³),mass concentration of particles derived from Lorenz-Mie calculation of OPC scattering (μg/m³),mass concentration of particles derived from Lorenz-Mie calculation of OPC scattering (μg/m³)
DateTimeUTC,F1_M11,P_M11,Q1_M11,Q2_M11,T1_M11,T2_M11,T3_M11,T4_M11,T5_M11,U1_M11,ZSPAN_M11,X0_M11,X2_M11,X1_M11
2023-11-19 23:00:00,SystemResetWarning,0820.3,5.00,000.00,025.9,023.4,000.0,034.4,026.9,12.2,0000.0,0005.19,0001.38,0000.95
2023-11-19 23:01:00,SystemResetWarning,0819.9,5.00,000.00,025.9,023.7,000.0,034.4,027.0,12.3,0000.0,0005.16,0001.36,0000.94
2023-11-19 23:02:00,SystemResetWarning,0819.9,5.00,000.00,025.9,024.0,000.0,034.3,027.1,12.4,0000.0,0004.77,0001.34,0000.93
2023-11-19 23:03:00,SystemResetWarning,0819.9,5.00,000.00,025.9,024.2,000.0,034.3,027.1,12.4,0000.0,0004.41,0001.28,0000.93
2023-11-19 23:04:00,SystemResetWarning,0819.9,5.00,000.00,025.9,024.4,000.0,034.3,027.2,12.3,0000.0,0004.44,0001.28,0000.93
2023-11-19 23:05:00,SystemResetWarning,0819.9,5.00,000.00,025.9,024.5,000.0,034.3,027.2,12.2,0000.0,0004.16,0001.26,0000.93
2023-11-19 23:06:00,SystemResetWarning,0819.9,5.00,000.00,025.9,024.6,000.0,034.3,027.3,12.2,0000.0,0003.42,0001.23,0000.93
2023-11-19 23:07:00,SystemResetWarning,0820.0,5.01,000.00,025.9,024.7,000.0,034.3,027.3,12.2,0000.0,0002.60,0001.24,0000.93
2023-11-19 23:08:00,SystemResetWarning,0819.9,5.00,000.00,025.9,024.8,000.0,034.3,027.3,12.1,0000.0,0002.10,0001.22,0000.93
2023-11-19 23:09:00,SystemResetWarning,0819.9,5.00,000.00,026.0,024.9,000.0,034.3,027.3,12.1,0000.0,0002.06,0001.20,0000.94
2023-11-19 23:10:00,SystemResetWarning,0820.0,4.99,000.00,026.0,024.9,000.0,034.3,027.3,12.1,0000.0,0001.96,0001.21,0000.94
2023-11-19 23:11:00,SystemResetWarning,0820.2,5.00,000.00,026.0,025.0,000.0,034.3,027.4,12.1,0000.0,0002.01,0001.22,0000.93
2023-11-19 23:12:00,SystemResetWarning,0820.0,5.01,000.00,026.0,025.0,000.0,034.3,027.4,12.0,0000.0,0001.98,0001.22,0000.92
2023-11-19 23:13:00,SystemResetWarning,0819.9,5.01,000.00,026.0,025.0,000.0,034.3,027.4,12.0,0000.0,0002.03,0001.18,0000.91
2023-11-19 23:14:00,SystemResetWarning,0820.1,5.00,000.00,026.0,025.1,000.0,034.3,027.4,12.0,0000.0,0002.17,0001.20,0000.90
2023-11-19 23:15:00,SystemResetWarning,0820.0,5.00,000.00,026.0,025.1,000.0,034.3,027.5,12.0,0000.0,0002.12,0001.18,0000.91
2023-11-19 23:16:00,SystemResetWarning,0820.0,4.99,000.00,026.1,025.1,000.0,034.3,027.5,12.0,0000.0,0002.08,0001.16,0000.90
2023-11-19 23:17:00,SystemResetWarning,0820.0,5.00,000.00,026.1,025.1,000.0,034.3,027.5,11.9,0000.0,0002.08,0001.16,0000.90
2023-11-19 23:18:00,SystemResetWarning,0820.1,5.00,000.00,026.1,025.2,000.0,034.3,027.5,11.9,0000.0,0001.99,0001.12,0000.88
2023-11-19 23:19:00,SystemResetWarning,0820.1,5.00,000.00,026.1,025.2,000.0,034.3,027.5,11.9,0000.0,0002.02,0001.11,0000.87
2023-11-19 23:20:00,SystemResetWarning,0820.2,5.00,000.00,026.1,025.2,000.0,034.3,027.5,11.9,0000.0,0002.01,0001.10,0000.86
2023-11-19 23:21:00,SystemResetWarning,0820.0,5.00,000.00,026.1,025.2,000.0,034.4,027.5,11.9,0000.0,0002.09,0001.11,0000.85
2023-11-19 23:22:00,SystemResetWarning,0820.0,5.00,000.00,026.1,025.2,000.0,034.4,027.5,12.0,0000.0,0003.30,0001.10,0000.86
2023-11-19 23:23:00,SystemResetWarning,0820.0,5.00,000.00,026.1,025.2,000.0,034.4,027.5,12.0,0000.0,0004.39,0001.18,0000.87
2023-11-19 23:24:00,SystemResetWarning,0820.2,5.00,000.00,026.1,025.2,000.0,034.4,027.5,12.1,0000.0,0004.36,0001.20,0000.88
2023-11-19 23:25:00,SystemResetWarning,0820.0,5.00,000.00,026.2,025.2,000.0,034.4,027.5,12.1,0000.0,0004.51,0001.40,0001.01
2023-11-19 23:26:00,SystemResetWarning,0820.0,5.00,000.00,026.2,025.2,000.0,034.4,027.6,12.1,0000.0,0006.09,0001.88,0001.32
2023-11-19 23:27:00,SystemResetWarning,0820.1,5.00,000.00,026.2,025.2,000.0,034.4,027.6,12.1,0000.0,0006.64,0002.16,0001.51
2023-11-19 23:28:00,SystemResetWarning,0820.0,5.00,000.00,026.2,025.2,000.0,034.4,027.5,12.2,0000.0,0006.96,0002.29,0001.60
2023-11-19 23:29:00,SystemResetWarning,0820.1,5.00,000.00,026.2,025.2,000.0,034.4,027.6,12.2,0000.0,0007.24,0002.45,0001.71
2023-11-19 23:30:00,SystemResetWarning,0820.0,5.00,000.00,026.2,025.2,000.0,034.4,027.6,12.3,0000.0,0007.46,0002.64,0001.80
2023-11-19 23:31:00,SystemResetWarning,0820.1,5.00,000.00,026.2,025.2,000.0,034.4,027.6,12.4,0000.0,0007.59,0002.77,0001.87
2023-11-19 23:32:00,SystemResetWarning,0820.1,5.00,000.00,026.2,025.2,000.0,034.5,027.6,12.4,0000.0,0007.72,0002.88,0001.93
2023-11-19 23:33:00,SystemResetWarning,0820.1,5.00,000.00,026.2,025.3,000.0,034.5,027.6,12.5,0000.0,0007.44,0002.94,0001.97
2023-11-19 23:34:00,SystemResetWarning,0820.2,5.00,000.00,026.2,025.3,000.0,034.5,027.6,12.6,0000.0,0006.28,0002.93,0001.98
2023-11-19 23:35:00,SystemResetWarning,0820.1,5.01,000.00,026.2,025.3,000.0,034.5,027.6,12.6,0000.0,0005.93,0002.92,0001.99
2023-11-19 23:36:00,SystemResetWarning,0820.2,5.00,000.00,026.2,025.3,000.0,034.5,027.6,12.7,0000.0,0005.85,0002.88,0001.96
2023-11-19 23:37:00,SystemResetWarning,0820.2,5.01,000.00,026.3,025.3,000.0,034.5,027.6,12.7,0000.0,0004.51,0002.43,0001.66
2023-11-19 23:38:00,SystemResetWarning,0820.2,4.99,000.00,026.3,025.3,000.0,034.5,027.7,12.7,0000.0,0003.75,0002.10,0001.44
2023-11-19 23:39:00,SystemResetWarning,0820.2,4.99,000.00,026.3,025.4,000.0,034.5,027.6,12.8,0000.0,0003.45,0001.96,0001.35
2023-11-19 23:40:00,SystemResetWarning,0820.3,5.00,000.00,026.3,025.4,000.0,034.5,027.6,12.7,0000.0,0003.44,0001.86,0001.26
2023-11-19 23:41:00,SystemResetWarning,0820.3,5.00,000.00,026.3,025.4,000.0,034.5,027.7,12.7,0000.0,0004.00,0001.71,0001.19
2023-11-19 23:42:00,SystemResetWarning,0820.3,5.00,000.00,026.3,025.4,000.0,034.5,027.7,12.7,0000.0,0004.39,0001.63,0001.13
2023-11-19 23:43:00,SystemResetWarning,0820.3,5.00,000.00,026.3,025.4,000.0,034.6,027.7,12.6,0000.0,0004.65,0001.60,0001.10
2023-11-19 23:44:00,SystemResetWarning,0820.3,5.01,000.00,026.3,025.4,000.0,034.6,027.7,12.6,0000.0,0005.79,0001.60,0001.08
2023-11-19 23:45:00,SystemResetWarning,0820.3,5.00,000.00,026.3,025.4,000.0,034.6,027.7,12.6,0000.0,0007.51,0001.59,0001.07
2023-11-19 23:46:00,SystemResetWarning,0820.3,5.01,000.00,026.3,025.5,000.0,034.6,027.7,12.6,0000.0,0007.61,0001.60,0001.06
2023-11-19 23:47:00,SystemResetWarning,0820.4,5.00,000.00,026.3,025.5,000.0,034.6,027.7,12.6,0000.0,0007.92,0001.63,0001.06
2023-11-19 23:48:00,SystemResetWarning,0820.4,4.98,000.00,026.3,025.5,000.0,034.6,027.7,12.7,0000.0,0008.57,0001.69,0001.06
2023-11-19 23:49:00,SystemResetWarning,0820.3,5.00,000.00,026.4,025.5,000.0,034.6,027.7,12.9,0000.0,0008.70,0001.69,0001.05
2023-11-19 23:50:00,SystemResetWarning,0820.3,5.01,000.00,026.4,025.5,000.0,034.6,027.7,13.1,0000.0,0008.74,0001.75,0001.04
2023-11-19 23:51:00,SystemResetWarning,0820.4,5.01,000.00,026.4,025.5,000.0,034.6,027.7,13.0,0000.0,0008.67,0001.75,0001.04
2023-11-19 23:52:00,SystemResetWarning,0820.9,5.00,000.00,026.4,025.5,000.0,034.6,027.7,13.1,0000.0,0008.85,0001.78,0001.04
2023-11-19 23:53:00,SystemResetWarning,0820.6,5.00,000.00,026.4,025.5,000.0,034.6,027.7,13.2,0000.0,0009.01,0001.76,0001.03
2023-11-19 23:54:00,SystemResetWarning,0820.8,5.00,000.00,026.4,025.5,000.0,034.6,027.7,13.1,0000.0,0008.70,0001.68,0001.01
2023-11-19 23:55:00,SystemResetWarning,0820.5,5.00,000.00,026.4,025.5,000.0,034.6,027.8,13.1,0000.0,0007.73,0001.59,0000.98
2023-11-19 23:56:00,SystemResetWarning,0820.6,5.00,000.00,026.4,025.5,000.0,034.7,027.7,13.1,0000.0,0006.65,0001.58,0000.97
2023-11-19 23:57:00,SystemResetWarning,0820.4,5.00,000.00,026.4,025.5,000.0,034.7,027.8,13.1,0000.0,0006.56,0001.54,0000.94
2023-11-19 23:58:00,SystemResetWarning,0820.4,5.00,000.00,026.4,025.5,000.0,034.7,027.8,13.2,0000.0,0006.56,0001.46,0000.91
2023-11-19 23:59:00,SystemResetWarning,0820.6,4.99,000.00,026.4,025.5,000.0,034.7,027.7,13.2,0000.0,0005.48,0001.36,0000.89
